Location: Tucson
(32.2217°N, 110.9265°W)
Time: 07:26:17
(UTC-07:00)

Tiros 1 - Pass Details

Date: 30 October 2021
Orbit: 629 x 664 km, 48.4° (Epoch: 26 November)

Event Time Altitude Azimuth Distance (km) Brightness Sun altitude
Rises 07:34:55 0° 240° (WSW) 2,981 10.2 10.2°
Reaches altitude 10° 07:37:18 10° 244° (WSW) 2,072 9.4 10.7°
Maximum altitude 07:42:01 57° 323° (NW) 776 7.5 11.6°
Drops below altitude 10° 07:46:44 10° 43° (NE) 2,072 10.0 12.5°
Sets 07:49:07 0° 47° (NE) 2,982 10.9 12.9°
